Fullerton, CA

3:53 PM PDT on June 27, 2017 (GMT -0700)
Fullerton Municipal

Weather History for KFUL - May, 2012

Change the Weather History Date:

Friday, May 18, 2012

  Actual Average Record
Temperature  
Mean Temperature 70 °F 67 °F  
Max Temperature 76 °F 75 °F 95 °F (2008)
Min Temperature 63 °F 58 °F 53 °F (2011)
Degree Days  
Heating Degree Days 0 1  
Month to date heating degree days 0 23  
Since 1 July heating degree days 860 1217  
Cooling Degree Days 5 2  
Month to date cooling degree days 73 36  
Year to date cooling degree days 184 88  
Growing Degree Days 18 (Base 50)    
Moisture  
Dew Point 53 °F    
Average Humidity 59    
Maximum Humidity 72    
Minimum Humidity 46    
Precipitation  
Precipitation 0.00 in 0.01 in 0.24 in (2011)
Month to date precipitation T 0.22  
Year to date precipitation 3.53 9.53  
Since 1 July precipitation 6.20  
Snow  
Snow 0.00 in - - ()
Month to date snowfall 0.0  
Year to date snowfall 0.0  
Snow Depth 0.00 in    
Sea Level Pressure  
Sea Level Pressure 29.86 in    
Wind  
Wind Speed 6 mph (South)    
Max Wind Speed 12 mph    
Max Gust Speed 17 mph    
Visibility 10 miles    
Events      
T = Trace of Precipitation, MM = Missing Value Source: NWS Daily Summary

Daily Weather History Graph

Daily Weather History Graph

Search for Another Location

Airport or City:

Trip Planner

Search our weather history database for the weather conditions in past years. The results will help you decide how hot, cold, wet, or windy it might be!

Date:

Astronomy

May. 18, 2012 Rise Set
Actual Time 5:48 AM PDT 7:48 PM PDT
Civil Twilight 5:20 AM PDT 8:16 PM PDT
Nautical Twilight 4:46 AM PDT 8:50 PM PDT
Astronomical Twilight 4:10 AM PDT 9:26 PM PDT
Moon 4:15 AM PDT (5/18) 6:04 PM PDT (5/18)
Length of Visible Light 14h 56m
Length of Day
14h 00m
Waning Crescent, 4% of the Moon is Illuminated
May 18
Waning Crescent
May 20
New
May 28
First Quarter
Jun 4
Full
Jun 11
Last Quarter

Hourly Weather History & Observations

Time (PDT) Temp. Dew Point Humidity Pressure Visibility Wind Dir Wind Speed Gust Speed Precip Events Conditions
12:01 AM 64.4 °F 55.4 °F 73% 29.86 in 10.0 mi South 8.1 mph - N/A   Overcast
12:53 AM 64.0 °F 54.0 °F 70% 29.85 in 10.0 mi SSE 4.6 mph - N/A   Overcast
1:53 AM 64.0 °F 54.0 °F 70% 29.85 in 10.0 mi SSE 6.9 mph - N/A   Overcast
2:53 AM 64.0 °F 54.0 °F 70% 29.84 in 10.0 mi South 5.8 mph - N/A   Overcast
3:03 AM 64.4 °F 53.6 °F 68% 29.85 in 10.0 mi SSE 4.6 mph - N/A   Overcast
3:53 AM 63.0 °F 53.1 °F 70% 29.83 in 10.0 mi South 3.5 mph - N/A   Overcast
4:41 AM 62.6 °F 53.6 °F 72% 29.84 in 10.0 mi South 5.8 mph - N/A   Overcast
4:53 AM 63.0 °F 53.1 °F 70% 29.84 in 10.0 mi SSE 5.8 mph - N/A   Overcast
5:53 AM 63.0 °F 52.0 °F 67% 29.85 in 9.0 mi South 3.5 mph - N/A   Overcast
6:53 AM 63.0 °F 52.0 °F 67% 29.86 in 9.0 mi Calm Calm - N/A   Overcast
7:53 AM 64.0 °F 53.1 °F 67% 29.87 in 9.0 mi West 3.5 mph - N/A   Overcast
8:46 AM 64.4 °F 51.8 °F 64% 29.87 in 10.0 mi SSE 4.6 mph - N/A   Mostly Cloudy
8:53 AM 66.9 °F 53.1 °F 61% 29.87 in 10.0 mi Variable 6.9 mph - N/A   Mostly Cloudy
9:53 AM 68.0 °F 52.0 °F 56% 29.88 in 10.0 mi Variable 3.5 mph - N/A   Overcast
10:06 AM 68.0 °F 51.8 °F 56% 29.88 in 10.0 mi Calm Calm - N/A   Overcast
10:53 AM 71.1 °F 53.1 °F 53% 29.88 in 10.0 mi Variable 6.9 mph - N/A   Overcast
11:53 AM 70.0 °F 52.0 °F 53% 29.88 in 10.0 mi SW 8.1 mph - N/A   Overcast
12:53 PM 72.0 °F 53.1 °F 51% 29.88 in 10.0 mi SW 11.5 mph 17.3 mph N/A   Mostly Cloudy
1:53 PM 73.9 °F 53.1 °F 48% 29.87 in 10.0 mi Variable 4.6 mph - N/A   Mostly Cloudy
2:53 PM 75.0 °F 53.1 °F 46% 29.85 in 10.0 mi Variable 4.6 mph - N/A   Scattered Clouds
3:53 PM 75.0 °F 53.1 °F 46% 29.84 in 10.0 mi SSW 8.1 mph - N/A   Partly Cloudy
4:53 PM 73.9 °F 52.0 °F 46% 29.83 in 10.0 mi South 6.9 mph - N/A   Clear
5:53 PM 73.0 °F 52.0 °F 48% 29.83 in 10.0 mi Variable 5.8 mph - N/A   Clear
6:53 PM 68.0 °F 53.1 °F 59% 29.85 in 10.0 mi SSW 9.2 mph - N/A   Clear
7:53 PM 66.0 °F 53.1 °F 63% 29.86 in 10.0 mi South 8.1 mph - N/A   Clear
8:53 PM 64.9 °F 53.1 °F 65% 29.89 in 10.0 mi South 4.6 mph - N/A   Clear
9:53 PM 64.0 °F 53.1 °F 67% 29.91 in 10.0 mi South 3.5 mph - N/A   Clear
10:53 PM 64.0 °F 54.0 °F 70% 29.90 in 10.0 mi Calm Calm - N/A   Clear
11:53 PM 64.0 °F 54.0 °F 70% 29.90 in 10.0 mi Calm Calm - N/A   Overcast